TIME,DELAY(SENSOR),PRES,OXYGEN,RAWTEMP,T(OPTODE),TCPHASE,FLUOR,BETA(BETA700),BETA(BETA412),BETA(BETA440),CDOM,C(CSC),ED(ED412.40),ED(ED444.00),ED(ED489.70),ED(ED554.30),LU(LU411.80),LU(LU443.40),LU(LU489.60),LU(LU554.10),COMP,TILTX,TILTY,CHECK
1364010645,5811,850.1400146484375000,45.4425506591796900,657.0319824218750000,4.7256360054016110,54.1552886962890600,53,100,86,79,79,14700,2147753609,2147425462,2148010523,2147875428,2147636544,2147064146,2148265398,2147198336,2268,4,14,30208
1364014241,5806,926.8300170898438000,47.8669815063476560,665.9326171875000000,4.4324669837951660,53.9180297851562500,52,100,88,80,80,14700,2147754669,2147424219,2148008932,2147876214,2147641426,2147053476,2148255753,2147199250,3172,4,13,11770
1364017841,5807,938.7000122070312000,49.0633888244628900,667.5515747070312000,4.3790440559387210,53.7691001892089840,53,97,88,78,80,14700,2147751817,2147423506,2148009005,2147876653,2147640694,2147057389,2148261650,2147197147,7,4,13,63138
1364021441,5808,965.7500000000000000,49.2599792480468750,671.0120849609375000,4.2647571563720700,53.7840690612793000,52,101,83,79,80,14697,2147758363,2147423460,2148012845,2147877147,2147640822,2147054555,2148262061,2147195419,460,4,13,35395
1364025041,5809,965.4299926757812000,49.9429206848144500,673.6262207031250000,4.1783351898193360,53.7236518859863300,52,167,86,79,80,14699,2147759222,2147425974,2148011172,2147878381,2147642294,2147058130,2148261275,2147199917,456,4,13,12279
1364028641,5809,969.7999877929688000,49.5326995849609400,673.7471923828125000,4.1743340492248535,53.7776603698730500,53,98,86,78,81,14697,2147756169,2147424667,2148011556,2147874697,2147642642,2147055369,2148263460,2147198025,422,4,13,11016
1364032241,5808,1005.1099853515625000,50.6320610046386700,674.1492919921875000,4.1610341072082520,53.6348991394043000,53,100,88,78,82,14701,2147757110,2147427108,2148009700,2147875108,2147642340,2147053403,2148266057,2147197769,3513,4,13,57821
1364035841,5808,1005.7700195312500000,50.3455314636230500,675.0021972656250000,4.1328139305114750,53.6841888427734400,53,98,85,80,80,14699,2147757110,2147422409,2148009005,2147879579,2147641563,2147056457,2148266861,2147201901,186,4,13,11882
1364039441,5806,1013.3699951171875000,50.6795082092285160,673.6909179687500000,4.1761951446533200,53.6228103637695300,52,99,83,80,80,14692,2147753609,2147421348,2148010084,2147877906,2147643520,2147057554,2148270884,2147197046,3273,4,13,43423
1364043041,5811,1013.0100097656250000,50.3131713867187500,672.8278198242188000,4.2047390937805180,53.6636009216308600,52,98,86,78,81,14694,2147757659,2147426075,2148011218,2147876077,2147639232,2147051748,2148268598,2147200393,3014,4,13,19357
1364046641,5809,1015.6500244140625000,50.4811096191406250,673.5847167968750000,4.1797080039978030,53.6474304199218750,52,98,89,79,81,14699,2147757714,2147424722,2148010989,2147877083,2147642861,2147053430,2148264813,2147196379,2993,4,13,27332
1364050241,5810,1017.6799926757812000,49.8323097229003900,672.6464843750000000,4.2107319831848145,53.7238197326660160,52,99,87,79,81,14698,2147755501,2147426130,2148014683,2147877604,2147644233,2147054244,2148264512,2147200841,130,4,13,12678
1364053841,5810,1007.0100097656250000,50.0241584777832000,673.6710205078125000,4.1768550872802730,53.7162590026855500,53,99,84,79,79,14699,2147757824,2147423899,2148012050,2147877312,2147641636,2147056347,2148263853,2147199232,573,4,13,42633
1364057441,5809,1005.8400268554688000,49.8516616821289060,674.8441772460938000,4.1380419731140140,53.7524185180664060,51,102,83,81,81,14686,2147761179,2147423378,2148010285,2147879817,2147642523,2147054089,2148259355,2147197312,503,4,13,4419
1364061041,5812,1008.4600219726562000,49.3925209045410160,675.6013183593750000,4.1129889488220215,53.8238105773925800,52,99,81,78,80,14691,2147756150,2147423378,2148010221,2147878317,2147644800,2147055076,2148265234,2147192621,3519,4,13,29845
1364064641,5809,1003.2600097656250000,49.5308303833007800,676.2753906250000000,4.0906729698181150,53.8140792846679700,52,98,85,78,81,14690,2147757449,2147425115,2148013092,2147877037,2147641792,2147057426,2148264987,2147195008,197,4,13,35121
1364068241,5807,1003.4699707031250000,49.9644088745117200,676.1213989257812000,4.0957717895507810,53.7540817260742200,52,100,86,78,80,14690,2147756598,2147423076,2148012150,2147879030,2147644297,2147057371,2148263451,2147198912,3515,4,13,61443
1364071841,5811,1009.6699829101562000,50.3054618835449200,676.1571044921875000,4.0945892333984375,53.7079200744628900,53,98,85,77,79,14689,2147759232,2147425344,2148009901,2147878573,2147642779,2147057609,2148261595,2147192630,150,4,13,18660
1364075441,5810,1004.3900146484375000,50.1407012939453100,676.8815917968750000,4.0706019401550290,53.7355117797851560,52,96,83,78,81,14690,2147756059,2147422802,2148009700,2147875638,2147642011,2147056100,2148265883,2147198262,3254,4,13,46904
1364079041,5812,1015.0000000000000000,50.1515998840332000,674.0416259765625000,4.1645951271057130,53.6978111267089840,51,99,83,79,81,14685,2147759424,2147426166,2148011684,2147878848,2147644635,2147051008,2148262582,2147198674,225,4,13,29090
1364082641,5810,1012.5200195312500000,50.0559997558593750,674.2175903320312000,4.1587729454040530,53.7140502929687500,52,98,88,78,80,14680,2147758326,2147426432,2148009965,2147879003,2147644937,2147055186,2148261458,2147195830,3462,4,13,11532
1364086241,5810,1017.1300048828125000,49.8457412719726560,673.2271118164062000,4.1915359497070310,53.7341003417968750,52,98,86,79,81,14681,2147757339,2147426368,2148010614,2147876489,2147642715,2147055881,2148264804,2147198354,186,4,13,60469
1364089841,5808,1020.0000000000000000,50.3037796020507800,672.5767822265625000,4.2130370140075680,53.6630287170410160,52,99,85,78,79,14679,2147757339,2147423899,2148013586,2147875620,2147642386,2147055936,2148268059,2147201170,3482,4,13,46367
1364093441,5808,1025.7900390625000000,50.1629981994628900,672.1544189453125000,4.2270050048828125,53.6747703552246100,53,99,88,78,81,14679,2147756571,2147426377,2148010432,2147875684,2147641938,2147061083,2148258340,2147199798,3562,4,13,22723
1364097041,5807,1037.8699951171875000,49.7777404785156250,671.2048950195312000,4.2583870887756350,53.7131996154785160,53,100,84,79,79,14677,2147758400,2147423561,2148011958,2147876809,2147640164,2147053705,2148269997,2147196059,259,4,13,55671
1364100641,5809,1024.3000488281250000,49.4644813537597660,672.0842285156250000,4.2293238639831540,53.7677001953125000,53,101,90,78,80,14678,2147757732,2147424786,2148011913,2147875812,2147642660,2147057088,2148262729,2147197101,463,4,13,58817
1364104241,5807,1016.1500244140625000,49.8289718627929700,673.1411743164062000,4.1943778991699220,53.7319908142089840,53,96,85,81,80,14677,2147757504,2147423424,2148010093,2147878976,2147641234,2147057060,2148266157,2147194962,3195,4,13,7589
1364107841,5809,1003.5399780273438000,49.4286308288574200,675.9224243164062000,4.1023597717285160,53.8250694274902340,52,98,87,78,81,14678,2147756068,2147426907,2148012955,2147876260,2147640320,2147059291,2148262729,2147199625,541,4,13,40991
1364111441,5811,1004.0499877929688000,49.8792114257812500,676.2548828125000000,4.0913510322570800,53.7659416198730500,53,98,84,79,80,14675,2147755245,2147424649,2148009353,2147874340,2147643373,2147053220,2148267099,2147199643,18,4,13,42331
1364115041,5812,1007.2500000000000000,50.1803398132324200,676.5322265625000000,4.0821719169616700,53.7262496948242200,51,100,85,78,81,14674,2147758445,2147427318,2148010669,2147878244,2147646025,2147056667,2148258258,2147199616,3448,4,13,24854
1364118641,5809,1010.6799926757812000,49.9121818542480500,676.5344238281250000,4.0820980072021480,53.7615890502929700,52,101,84,79,79,14677,2147758491,2147424265,2148010770,2147878738,2147644836,2147054674,2148264512,2147195830,399,4,13,23281
1364122241,5809,1015.1300048828125000,50.5388717651367200,676.3427734375000000,4.0884418487548830,53.6748886108398440,53,100,91,77,81,14672,2147756525,2147426550,2148009133,2147876361,2147643309,2147058806,2148265673,2147197732,300,4,13,19953
1364125841,5807,1022.0200195312500000,49.4167900085449200,674.8510131835938000,4.1378188133239750,53.8095588684082000,52,104,94,79,81,14673,2147754761,2147426724,2148011081,2147880630,2147642048,2147054811,2148268973,2147199405,3190,4,13,46264
1364129441,5808,1019.2899780273438000,48.7108917236328100,675.0352172851562000,4.1317229270935060,53.9094314575195300,53,96,87,78,81,14673,2147756571,2147426121,2148010761,2147875556,2147642020,2147054802,2148261348,2147200192,115,4,13,1090
1364133041,5809,1019.0900268554688000,48.7780990600585940,674.7924804687500000,4.1397509574890140,53.8984107971191400,52,98,87,78,81,14675,2147756662,2147426029,2148009737,2147875702,2147642432,2147056393,2148263396,2147193728,3270,4,13,15337
1364136641,5810,1019.1599731445312000,48.5352516174316400,674.9915771484375000,4.1331648826599120,53.9337692260742200,51,97,89,79,81,14670,2147752941,2147424978,2148010633,2147878939,2147644032,2147054537,2148269046,2147197302,3329,4,13,54527
1364140241,5808,1022.4000244140625000,49.1405601501464840,674.6240844726562000,4.1453227996826170,53.8487510681152340,53,97,83,79,80,14671,2147756169,2147426285,2148009078,2147874541,2147641014,2147053961,2148262656,2147200237,3552,4,13,36095
1364143841,5810,1021.2600097656250000,48.8784294128418000,674.3352050781250000,4.1548819541931150,53.8799896240234400,52,98,87,78,80,14671,2147759963,2147422573,2148011245,2147878281,2147643008,2147059072,2148265316,2147198838,362,4,13,18566
1364147441,5812,1017.2899780273438000,48.8312301635742200,674.2570190429688000,4.1574687957763670,53.8826599121093750,52,100,87,79,80,14672,2147756370,2147424749,2148011931,2147878464,2147641856,2147055232,2148260644,2147201024,642,4,13,28755
1364151041,5809,1018.8200073242188000,48.7784500122070300,674.8937988281250000,4.1364002227783200,53.8989295959472660,52,98,85,78,81,14671,2147754550,2147421897,2148010834,2147875629,2147640045,2147051757,2148260315,2147194733,57,4,13,2212
1364154641,5808,1015.3099975585938000,48.5029487609863300,675.5159301757812000,4.1158142089843750,53.9479217529296900,53,99,83,79,80,14674,2147757430,2147424173,2148010075,2147876105,2147642130,2147057106,2148265417,2147197577,31,4,13,17773
1364155855,5806,1015.3300170898438000,48.8945503234863300,675.8101806640625000,4.1060709953308105,53.8984794616699200,53,97,86,80,81,14683,2147754870,2147423926,2148009170,2147874486,2147645851,2147053302,2148261248,2147196160,3489,4,13,41569
